Date String (YYYY-MM-DD hh:mm:ss) UTC,Instrument flags,absolute air pressure of the measurement (hPa),sample flow rate (lpm),inlet stack bypass flow (lpm),air temperature of the measurement (°C),ambient temperature measured by the external sensor (°C),aerosol sample conditioner tube jacket temperature (°C),OPC LED temperature (°C),internal box temperature (°C),relative humidity of the measurement (%),span deviation,mass concentration of particles derived from Lorenz-Mie calculation of OPC scattering (μg/m³),mass concentration of particles derived from Lorenz-Mie calculation of OPC scattering (μg/m³),mass concentration of particles derived from Lorenz-Mie calculation of OPC scattering (μg/m³)
DateTimeUTC,F1_M11,P_M11,Q1_M11,Q2_M11,T1_M11,T2_M11,T3_M11,T4_M11,T5_M11,U1_M11,ZSPAN_M11,X0_M11,X2_M11,X1_M11
2023-11-15 15:00:00,SystemResetWarning,0834.1,5.00,000.00,025.6,024.6,000.0,033.8,027.1,8.4,0000.0,0008.22,0003.26,0002.57
2023-11-15 15:01:00,SystemResetWarning,0834.1,5.00,000.00,025.6,024.6,000.0,033.9,027.1,8.6,0000.0,0007.69,0003.25,0002.59
2023-11-15 15:02:00,SystemResetWarning,0834.1,5.00,000.00,025.6,024.6,000.0,033.9,027.1,8.6,0000.0,0007.22,0003.31,0002.62
2023-11-15 15:03:00,SystemResetWarning,0834.1,5.01,000.00,025.6,024.6,000.0,033.9,027.1,8.4,0000.0,0007.13,0003.36,0002.65
2023-11-15 15:04:00,SystemResetWarning,0834.1,5.01,000.00,025.6,024.6,000.0,033.9,027.1,8.3,0000.0,0006.90,0003.38,0002.67
2023-11-15 15:05:00,SystemResetWarning,0834.1,5.00,000.00,025.6,024.6,000.0,033.9,027.1,8.2,0000.0,0006.79,0003.38,0002.68
2023-11-15 15:06:00,SystemResetWarning,0834.1,5.00,000.00,025.6,024.6,000.0,033.9,027.1,8.1,0000.0,0007.10,0003.40,0002.68
2023-11-15 15:07:00,SystemResetWarning,0834.1,4.99,000.00,025.6,024.7,000.0,033.9,027.1,8.0,0000.0,0007.71,0003.38,0002.68
2023-11-15 15:08:00,SystemResetWarning,0834.0,5.00,000.00,025.6,024.7,000.0,033.9,027.1,8.1,0000.0,0007.85,0003.38,0002.70
2023-11-15 15:09:00,SystemResetWarning,0834.1,5.00,000.00,025.6,024.7,000.0,033.9,027.1,8.2,0000.0,0007.92,0003.38,0002.70
2023-11-15 15:10:00,SystemResetWarning,0834.1,5.00,000.00,025.7,024.7,000.0,033.9,027.2,8.1,0000.0,0007.88,0003.36,0002.72
2023-11-15 15:11:00,SystemResetWarning,0834.1,5.00,000.00,025.7,024.7,000.0,033.9,027.2,8.4,0000.0,0008.21,0003.35,0002.75
2023-11-15 15:12:00,SystemResetWarning,0834.1,5.00,000.00,025.7,024.7,000.0,033.9,027.1,8.8,0000.0,0008.63,0003.42,0002.79
2023-11-15 15:13:00,SystemResetWarning,0834.1,5.00,000.00,025.7,024.7,000.0,033.9,027.2,8.6,0000.0,0009.31,0003.44,0002.86
2023-11-15 15:14:00,SystemResetWarning,0834.1,5.00,000.00,025.7,024.7,000.0,034.0,027.2,8.5,0000.0,0009.77,0003.48,0002.91
2023-11-15 15:15:00,SystemResetWarning,0834.1,5.01,000.00,025.7,024.7,000.0,034.0,027.2,8.7,0000.0,0009.87,0003.53,0002.96
2023-11-15 15:16:00,SystemResetWarning,0834.1,5.00,000.00,025.7,024.8,000.0,034.0,027.2,8.8,0000.0,0010.20,0003.58,0003.01
2023-11-15 15:17:00,SystemResetWarning,0834.1,5.01,000.00,025.7,024.8,000.0,034.0,027.2,8.5,0000.0,0010.70,0003.67,0003.07
2023-11-15 15:18:00,SystemResetWarning,0834.1,5.00,000.00,025.7,024.8,000.0,034.0,027.2,8.8,0000.0,0010.35,0003.75,0003.11
2023-11-15 15:19:00,SystemResetWarning,0834.2,5.00,000.00,025.7,024.8,000.0,034.0,027.2,8.8,0000.0,0010.32,0003.87,0003.14
2023-11-15 15:20:00,SystemResetWarning,0834.2,5.00,000.00,025.7,024.8,000.0,034.0,027.2,8.9,0000.0,0010.85,0003.93,0003.16
2023-11-15 15:21:00,SystemResetWarning,0834.2,5.00,000.00,025.8,024.8,000.0,034.0,027.2,8.8,0000.0,0011.43,0003.95,0003.16
2023-11-15 15:22:00,SystemResetWarning,0834.2,5.00,000.00,025.8,024.8,000.0,034.0,027.2,8.9,0000.0,0010.77,0003.98,0003.16
2023-11-15 15:23:00,SystemResetWarning,0834.2,5.00,000.00,025.8,024.8,000.0,034.0,027.3,8.9,0000.0,0010.75,0004.01,0003.18
2023-11-15 15:24:00,SystemResetWarning,0834.2,5.00,000.00,025.8,024.9,000.0,034.0,027.3,9.0,0000.0,0010.98,0004.03,0003.18
2023-11-15 15:25:00,SystemResetWarning,0834.2,5.00,000.00,025.8,024.9,000.0,034.0,027.3,9.0,0000.0,0010.58,0004.07,0003.19
2023-11-15 15:26:00,SystemResetWarning,0834.4,5.00,000.00,025.8,025.0,000.0,034.1,027.3,9.0,0000.0,0010.58,0004.09,0003.19
2023-11-15 15:27:00,SystemResetWarning,0834.4,4.99,000.00,025.8,025.0,000.0,034.1,027.3,9.1,0000.0,0010.47,0004.09,0003.20
2023-11-15 15:28:00,SystemResetWarning,0834.3,4.99,000.00,025.9,025.0,000.0,034.1,027.4,9.0,0000.0,0010.04,0004.09,0003.20
2023-11-15 15:29:00,SystemResetWarning,0834.3,5.00,000.00,025.9,025.0,000.0,034.1,027.4,8.8,0000.0,0009.96,0004.06,0003.20
2023-11-15 15:30:00,SystemResetWarning,0834.3,5.00,000.00,025.9,025.1,000.0,034.1,027.4,9.0,0000.0,0009.94,0004.04,0003.21
2023-11-15 15:31:00,SystemResetWarning,0834.4,5.00,000.00,025.9,025.1,000.0,034.1,027.4,8.7,0000.0,0009.84,0003.99,0003.21
2023-11-15 15:32:00,SystemResetWarning,0834.4,5.01,000.00,025.9,025.1,000.0,034.1,027.5,8.7,0000.0,0009.30,0003.96,0003.20
2023-11-15 15:33:00,SystemResetWarning,0834.3,5.01,000.00,026.0,025.2,000.0,034.1,027.5,8.8,0000.0,0009.80,0003.95,0003.21
2023-11-15 15:34:00,SystemResetWarning,0834.3,5.00,000.00,026.0,025.2,000.0,034.2,027.5,8.8,0000.0,0009.91,0003.93,0003.20
2023-11-15 15:35:00,SystemResetWarning,0834.4,4.99,000.00,026.0,025.2,000.0,034.2,027.5,9.0,0000.0,0008.92,0003.88,0003.19
2023-11-15 15:36:00,SystemResetWarning,0834.3,4.99,000.00,026.0,025.2,000.0,034.2,027.5,10.1,0000.0,0008.72,0003.85,0003.18
2023-11-15 15:37:00,SystemResetWarning,0834.3,5.00,000.00,026.0,025.2,000.0,034.2,027.5,10.0,0000.0,0009.02,0003.83,0003.18
2023-11-15 15:38:00,SystemResetWarning,0834.3,5.02,000.00,026.0,025.3,000.0,034.2,027.5,9.7,0000.0,0009.24,0003.82,0003.17
2023-11-15 15:39:00,SystemResetWarning,0834.3,5.00,000.00,026.1,025.3,000.0,034.2,027.6,9.6,0000.0,0009.37,0003.78,0003.16
2023-11-15 15:40:00,SystemResetWarning,0834.3,5.00,000.00,026.1,025.3,000.0,034.3,027.6,9.4,0000.0,0009.48,0003.80,0003.15
2023-11-15 15:41:00,SystemResetWarning,0834.3,5.00,000.00,026.1,025.3,000.0,034.3,027.6,9.5,0000.0,0010.11,0003.79,0003.14
2023-11-15 15:42:00,SystemResetWarning,0834.3,5.00,000.00,026.1,025.3,000.0,034.3,027.7,9.1,0000.0,0011.79,0003.80,0003.13
2023-11-15 15:43:00,SystemResetWarning,0834.4,5.00,000.00,026.1,025.4,000.0,034.3,027.7,8.8,0000.0,0012.99,0003.83,0003.12
2023-11-15 15:44:00,SystemResetWarning,0834.3,4.99,000.00,026.1,025.4,000.0,034.3,027.7,8.7,0000.0,0014.12,0003.91,0003.12
2023-11-15 15:45:00,SystemResetWarning,0834.3,5.00,000.00,026.2,025.4,000.0,034.3,027.7,8.9,0000.0,0014.70,0003.93,0003.12
2023-11-15 15:46:00,SystemResetWarning,0834.3,5.00,000.00,026.2,025.4,000.0,034.4,027.7,9.2,0000.0,0015.11,0003.95,0003.11
2023-11-15 15:47:00,SystemResetWarning,0834.3,5.00,000.00,026.2,025.5,000.0,034.4,027.7,9.4,0000.0,0015.43,0003.94,0003.10
2023-11-15 15:48:00,SystemResetWarning,0834.3,5.00,000.00,026.2,025.5,000.0,034.4,027.7,9.2,0000.0,0015.81,0003.94,0003.09
2023-11-15 15:49:00,SystemResetWarning,0834.3,5.00,000.00,026.2,025.5,000.0,034.4,027.8,8.9,0000.0,0015.88,0003.95,0003.06
2023-11-15 15:50:00,SystemResetWarning,0834.4,5.00,000.00,026.3,025.5,000.0,034.4,027.8,9.2,0000.0,0015.82,0003.96,0003.04
2023-11-15 15:51:00,SystemResetWarning,0834.5,5.00,000.00,026.3,025.5,000.0,034.4,027.8,9.5,0000.0,0015.76,0003.94,0003.03
2023-11-15 15:52:00,SystemResetWarning,0834.5,5.00,000.00,026.3,025.5,000.0,034.5,027.8,11.5,0000.0,0015.40,0003.93,0003.03
2023-11-15 15:53:00,SystemResetWarning,0834.5,5.00,000.00,026.3,025.6,000.0,034.5,027.8,12.7,0000.0,0013.98,0003.99,0003.03
2023-11-15 15:54:00,SystemResetWarning,0834.5,4.99,000.00,026.3,025.6,000.0,034.5,027.8,12.6,0000.0,0013.10,0004.02,0003.03
2023-11-15 15:55:00,SystemResetWarning,0834.5,5.01,000.00,026.3,025.6,000.0,034.5,027.8,12.6,0000.0,0011.53,0003.97,0003.02
2023-11-15 15:56:00,SystemResetWarning,0834.6,5.00,000.00,026.3,025.6,000.0,034.5,027.8,12.6,0000.0,0010.66,0003.91,0002.98
2023-11-15 15:57:00,SystemResetWarning,0834.6,5.01,000.00,026.4,025.6,000.0,034.5,027.8,12.6,0000.0,0010.10,0003.85,0002.96
2023-11-15 15:58:00,SystemResetWarning,0834.7,5.00,000.00,026.4,025.6,000.0,034.5,027.8,12.4,0000.0,0011.34,0003.97,0002.97
2023-11-15 15:59:00,SystemResetWarning,0834.7,5.00,000.00,026.4,025.6,000.0,034.6,027.9,12.4,0000.0,0012.29,0004.12,0002.99
